Showing default

FLOCK 4Q 34, 58316

Orbit data source: Space-Track

FLOCK 4Q 34, 58316 is a payload satellite owned by Planet (US) in SSO that was launched on Sat, 11 Nov 2023 UTC via an FALCON 9 launch vehicle from the Air Force Western Test Range (AFWTR). Payload-class satellites include a variety of spacecraft equipped with specific instruments for various scientific and technological missions. These include communications satellites like Starlink; space stations such as the ISS; scientific satellites like the Hubble; Earth observation satellites from companies like Planet Labs, Umbra, and HawkEye 360; GPS; miniature CubeSats for education and research; and military/defense satellites.

Loading next visibility...
Identifier
58316, 2023-174BN
Orbit
SSO
Country
Flag of USUS
Related business
Manufacturer
Planet
Mission
Operational Commercial Imaging
Bus & Motor
CUBESAT 3U, Unknown motor
Mass
5.7 kg wet, 5.7 kg dry
Launch date (UTC)
2023-11-11 (2 years ago)
Launch vehicle
FALCON 9
Launch site
Air Force Western Test Range (AFWTR)
Object type
Payload
Rocket body
Debris
Shape & HBR
Box + 2 Pan, 1.0 m
Radar Cross Section
0.072 m², Medium (>0.1 m² and < 1m²)

Expand to show TLE details & history
Last TLE update: 7 hours ago

TLE from 7 hours ago
0 FLOCK 4Q 34
1 58316U 23174BN  25289.16916999  .00028218  00000-0  65156-3 0  9993
2 58316  97.4063  10.5800 0007058 300.7018  59.3534 15.42476489108072
Epoch: 2025-10-16T04:03Z
TLE epoch observation values (Epoch: 2025-10-16T04:03:36.287Z)
Latitude
0.00006°
Longitude
-75.25396°
Altitude
439.473 km
Speed
7.65 km/s
True Right ascension
00h 42m 19s
True Declination
0° 00' 00"
Sunlit
Object was in full shadow at epoch
Visualization orbit readout
Latitude
Unknown
Longitude
Unknown
Altitude
Unknown
Speed
Unknown
Apparent Right ascension
Unknown
Apparent Declination
Unknown
Sunlit
N/A
Visualization observer readout
Local Sidereal Time
05:40:29
Azimuth
Unknown
Elevation
Unknown
Doppler factor
Unknown
Orbital elements
Apogee altitude
440.548 km
Perigee altitude
430.93 km
Semi-major axis
6,813.876 km
Eccentricity
0.00071
Inclination
97.4063°
RAAN
10.58°
Arg. of periapsis
300.7018°
True anomaly
59.42301°
Mean anomaly
59.3534°
Eccentric anomaly
59.3882°
Mean motion
3.8588 °/min
Orbital period
93.29 mins
BSTAR
0.00065156
Loading maneuver chart data...
Computing Atmospheric mass density...

Documentation

Showing up to 5 results
|